{"data":{"norad_id":49153,"intl_designator":"2021-082Z","name":"STARLINK-3072","alt_names":[],"object_type":"PAYLOAD","status":"ACTIVE","operator":null,"country":"US","launch_date":"2021-09-14","launch_site_code":"AFWTR","launch_vehicle":null,"mission":null,"orbit_class":"UNKNOWN","rcs_meters":null,"size_class":null,"mass_kg":null,"dimensions":null,"purposes":["comms"],"wikipedia_slug":null,"has_3d_model":false,"image_url":null,"decayed_at":null,"tle_current":{"epoch":"2026-09-20T00:56:31.502400Z","epoch_age_seconds":81112,"freshness":"FRESH","line1":"1 49153U 21082Z   26263.03925350  .00001003  00000+0  91847-4 0  9997","line2":"2 49153  69.9981 124.4321 0002806 269.8897  90.1941 14.98330778277288","mean_motion":14.98330778,"eccentricity":0.0002806,"inclination_deg":69.9981,"raan_deg":124.4321,"arg_perigee_deg":269.8897,"mean_anomaly_deg":90.1941,"bstar":9.1847e-5,"rev_number":27728,"period_min":96.106949222664,"perigee_km":570.10326159453,"apogee_km":574.00370849474,"semimajor_km":6950.1904850446,"source":"CELESTRAK","updated_at":"2026-09-20T09:00:39.249954Z"}}}